{"data":{"norad_id":41191,"intl_designator":"2015-082A","name":"EXPRESS-AMU1","alt_names":[],"object_type":"PAYLOAD","status":"ACTIVE","operator":null,"country":"CIS","launch_date":"2015-12-24","launch_site_code":"TYMSC","launch_vehicle":null,"mission":null,"orbit_class":"UNKNOWN","rcs_meters":19.255,"size_class":null,"mass_kg":null,"dimensions":null,"purposes":["comms"],"wikipedia_slug":null,"has_3d_model":false,"image_url":null,"decayed_at":null,"tle_current":{"epoch":"2026-05-25T03:54:53.777088Z","epoch_age_seconds":75108,"freshness":"FRESH","line1":"1 41191U 15082A   26145.16312242  .00000153  00000+0  00000+0 0  9998","line2":"2 41191   0.0175 319.3600 0002968 100.2076 278.0060  1.00269974 38039","mean_motion":1.00269974,"eccentricity":0.0002968,"inclination_deg":0.0175,"raan_deg":319.36,"arg_perigee_deg":100.2076,"mean_anomaly_deg":278.006,"bstar":0,"rev_number":3803,"period_min":1436.1228417193,"perigee_km":35774.588014743,"apogee_km":35799.617301004,"semimajor_km":42165.239657873,"source":"CELESTRAK","updated_at":"2026-05-25T13:38:13.998407Z"}}}